International Skating Union - Official Site

ISU World Cup Calgary
November 13-15, 2015

Draw | Lap Times | Index | World Cup

Referee: Jan  BOLT  (NED)
Starter: Mike  MAKOWSKY  (CAN)
StartTime: EndTime: Air Temp: Ice Temp: Humidity:
13:58 14:46 17 ℃ -8.2 ℃ 33%
Result Team Pursuit Men
Rankings as of Nov 15 2015 4:47PM
Rank: No.: Team: Nation: Time: Behind: Points:
Total 12
1 9 Canada (10) Ted-Jan Bloemen (8) Jordan Belchos (15) Bejamin Donnelly CAN CAN 3:39.320.5 - 17.94 - (17.9)
1.0 - 31.01 - (13.0)
1.5 - 43.93 - (12.9)
2.0 - 56.97 - (13.0)
2.5 - 1:10.00 - (13.0)
3.0 - 1:23.12 - (13.1)
3.5 - 1:36.48 - (13.3)
4.0 - 1:49.82 - (13.3)
4.5 - 2:03.28 - (13.4)
5.0 - 2:16.97 - (13.6)
5.5 - 2:30.43 - (13.4)
6.0 - 2:43.85 - (13.4)
6.5 - 2:57.39 - (13.5)
7.0 - 3:11.23 - (13.8)
7.5 - 3:25.21 - (13.9)
8.0 - 3:39.32 - (14.1)
100
2 12 Korea (82) Seung-Hoon Lee (76) Cheol-Min Kim (75) Hyung-Joon Joo KOR KOR 3:39.600.5 - 17.76 - (17.7)
1.0 - 31.00 - (13.2)
1.5 - 44.07 - (13.0)
2.0 - 57.03 - (12.9)
2.5 - 1:10.12 - (13.0)
3.0 - 1:23.28 - (13.1)
3.5 - 1:36.57 - (13.2)
4.0 - 1:49.98 - (13.4)
4.5 - 2:03.61 - (13.6)
5.0 - 2:17.13 - (13.5)
5.5 - 2:30.90 - (13.7)
6.0 - 2:44.71 - (13.8)
6.5 - 2:58.55 - (13.8)
7.0 - 3:12.19 - (13.6)
7.5 - 3:25.91 - (13.7)
8.0 - 3:39.60 - (13.6)
0.28 80
3 11 Italy (51) Andrea Giovannini (54) Luca Stefani (50) Fabio Francolini ITA ITA 3:41.970.5 - 17.88 - (17.8)
1.0 - 31.31 - (13.4)
1.5 - 44.62 - (13.3)
2.0 - 58.02 - (13.4)
2.5 - 1:11.43 - (13.4)
3.0 - 1:24.60 - (13.1)
3.5 - 1:38.16 - (13.5)
4.0 - 1:51.65 - (13.4)
4.5 - 2:05.41 - (13.7)
5.0 - 2:19.17 - (13.7)
5.5 - 2:32.88 - (13.7)
6.0 - 2:46.78 - (13.9)
6.5 - 3:00.62 - (13.8)
7.0 - 3:14.52 - (13.9)
7.5 - 3:28.30 - (13.7)
8.0 - 3:41.97 - (13.6)
2.65 70
4 10 Poland (109) Zbigniew Brodka (112) Konrad Niedzwiedzki (115) Jan Szymanski POL POL 3:42.460.5 - 17.85 - (17.8)
1.0 - 31.39 - (13.5)
1.5 - 44.92 - (13.5)
2.0 - 58.26 - (13.3)
2.5 - 1:11.70 - (13.4)
3.0 - 1:25.44 - (13.7)
3.5 - 1:39.11 - (13.6)
4.0 - 1:52.81 - (13.7)
4.5 - 2:06.70 - (13.8)
5.0 - 2:20.18 - (13.4)
5.5 - 2:33.50 - (13.3)
6.0 - 2:46.90 - (13.4)
6.5 - 3:00.55 - (13.6)
7.0 - 3:14.34 - (13.7)
7.5 - 3:28.30 - (13.9)
8.0 - 3:42.46 - (14.1)
3.14 60
5 7 Japan (60) Shota Nakamura (61) Takuro Oda (66) Shane Williamson JPN JPN 3:43.890.5 - 17.12 - (17.1)
1.0 - 30.20 - (13.0)
1.5 - 43.42 - (13.2)
2.0 - 56.88 - (13.4)
2.5 - 1:10.65 - (13.7)
3.0 - 1:24.60 - (13.9)
3.5 - 1:38.43 - (13.8)
4.0 - 1:52.33 - (13.8)
4.5 - 2:06.20 - (13.8)
5.0 - 2:20.00 - (13.7)
5.5 - 2:34.14 - (14.1)
6.0 - 2:47.99 - (13.8)
6.5 - 3:02.05 - (14.0)
7.0 - 3:16.21 - (14.1)
7.5 - 3:30.12 - (13.9)
8.0 - 3:43.89 - (13.7)
4.57 50
6 8 Russia (123) Aleksandr Rumyantsev (119) Sergey Gryaztsov (125) Sergey Trofimov RUS RUS 3:44.010.5 - 18.23 - (18.2)
1.0 - 31.83 - (13.5)
1.5 - 45.30 - (13.4)
2.0 - 58.79 - (13.4)
2.5 - 1:12.41 - (13.6)
3.0 - 1:26.07 - (13.6)
3.5 - 1:39.93 - (13.8)
4.0 - 1:53.54 - (13.6)
4.5 - 2:07.23 - (13.6)
5.0 - 2:20.93 - (13.7)
5.5 - 2:34.76 - (13.8)
6.0 - 2:48.42 - (13.6)
6.5 - 3:02.34 - (13.9)
7.0 - 3:16.06 - (13.7)
7.5 - 3:29.86 - (13.8)
8.0 - 3:44.01 - (14.1)
4.69 45
7 4 Germany (45) Hubert Hirschbichler (42) Patrick Beckert (44) Moritz Geisreiter GER GER 3:48.270.5 - 18.00 - (18.0)
1.0 - 31.00 - (13.0)
1.5 - 44.00 - (13.0)
2.0 - 57.00 - (13.0)
2.5 - 1:11.00 - (14.0)
3.0 - 1:24.00 - (13.0)
3.5 - 1:37.00 - (13.0)
4.0 - 1:50.00 - (13.0)
4.5 - 2:03.00 - (13.0)
5.0 - 2:16.00 - (13.0)
5.5 - 2:29.00 - (13.0)
6.0 - 2:42.00 - (13.0)
6.5 - 2:55.00 - (13.0)
7.0 - 3:08.00 - (13.0)
7.5 - 3:21.00 - (13.0)
8.0 - 3:48.27 - (27.2)
8.95 40
8 3 USA (140) Jeffrey Swider-Peltz (138) Ian Quinn (139) Chase Reichmann USA USA 3:51.500.5 - 17.50 - (17.5)
1.0 - 32.42 - (14.9)
1.5 - 46.40 - (13.9)
2.0 - 1:00.20 - (13.8)
2.5 - 1:14.23 - (14.0)
3.0 - 1:28.50 - (14.2)
3.5 - 1:42.85 - (14.3)
4.0 - 1:56.68 - (13.8)
4.5 - 2:11.02 - (14.3)
5.0 - 2:25.23 - (14.2)
5.5 - 2:39.55 - (14.3)
6.0 - 2:54.14 - (14.5)
6.5 - 3:08.39 - (14.2)
7.0 - 3:22.83 - (14.4)
7.5 - 3:37.21 - (14.3)
8.0 - 3:51.50 - (14.2)
12.18 35
9 5 China (30) Longjiang Sun (26) Bailin Li (31) Guojun Tian CHN CHN 3:52.92 13.60 30
10 2 Switzerland (128) Martin Hänggi (130) Livio Wenger (129) Christian Oberbichler SUI SUI 3:57.750.5 - 18.22 - (18.2)
1.0 - 33.00 - (14.7)
1.5 - 46.14 - (13.1)
2.0 - 1:00.00 - (13.8)
2.5 - 1:14.54 - (14.5)
3.0 - 1:29.50 - (14.9)
3.5 - 1:44.04 - (14.5)
4.0 - 1:58.31 - (14.2)
4.5 - 2:12.44 - (14.1)
5.0 - 2:27.00 - (14.5)
5.5 - 2:41.17 - (14.1)
6.0 - 2:55.97 - (14.8)
6.5 - 3:11.32 - (15.3)
7.0 - 3:26.72 - (15.4)
7.5 - 3:42.10 - (15.3)
8.0 - 3:57.75 - (15.6)
18.43 25
11 13 Netherlands (86) Jan Blokhuijsen (88) Douwe de Vries (99) Arjan Stroetinga NED NED DNF0.5 - 18.21 - (18.2)
1.0 - 31.58 - (13.3)
1.5 - 1:21.37 - (49.7)
0
12 6 Norway (102) Håvard Bøkko (105) Sverre Lunde Pedersen (103) Sindre Henriksen NOR NOR DNS 0